Time,TemperatureF,DewpointF,PressureIn,WindDirection,WindDirectionDegrees,WindSpeedMPH,WindSpeedGustMPH,Humidity,HourlyPrecipIn,Conditions,Clouds,dailyrainin,SoftwareType,DateUTC
2014-01-19 00:00:00,26.3,14.3,29.79,South,180,10.0,22.0,60,0.00,,,-99.99,WeatherLink 5.6,2014-01-19 05:00:00,
2014-01-19 00:30:00,25.6,13.6,29.77,South,180,8.0,18.0,60,0.00,,,-99.99,WeatherLink 5.6,2014-01-19 05:30:00,
2014-01-19 01:00:00,25.4,13.4,29.77,South,180,7.0,16.0,60,0.00,,,-99.99,WeatherLink 5.6,2014-01-19 06:00:00,
2014-01-19 01:30:00,25.0,13.4,29.76,South,180,8.0,17.0,61,0.00,,,-99.99,WeatherLink 5.6,2014-01-19 06:30:00,
2014-01-19 02:00:00,24.9,13.3,29.76,South,180,7.0,15.0,61,0.00,,,-99.99,WeatherLink 5.6,2014-01-19 07:00:00,
2014-01-19 02:30:00,24.8,13.6,29.75,South,180,10.0,17.0,62,0.00,,,-99.99,WeatherLink 5.6,2014-01-19 07:30:00,
2014-01-19 03:00:00,25.3,14.1,29.76,South,180,7.0,15.0,62,0.00,,,-99.99,WeatherLink 5.6,2014-01-19 08:00:00,
2014-01-19 03:30:00,25.5,14.3,29.76,South,180,7.0,16.0,62,0.00,,,-99.99,WeatherLink 5.6,2014-01-19 08:30:00,
2014-01-19 04:00:00,26.0,15.1,29.76,SSE,157,3.0,11.0,63,0.00,,,-99.99,WeatherLink 5.6,2014-01-19 09:00:00,
2014-01-19 04:30:00,26.3,16.5,29.77,SSE,157,1.0,7.0,66,0.00,,,-99.99,WeatherLink 5.6,2014-01-19 09:30:00,
2014-01-19 05:00:00,25.4,15.3,29.78,SSE,157,1.0,9.0,65,0.00,,,-99.99,WeatherLink 5.6,2014-01-19 10:00:00,
2014-01-19 05:30:00,25.2,15.4,29.77,SSE,157,2.0,7.0,66,0.00,,,-99.99,WeatherLink 5.6,2014-01-19 10:30:00,
2014-01-19 06:00:00,25.7,16.6,29.79,SSE,157,2.0,9.0,68,0.00,,,-99.99,WeatherLink 5.6,2014-01-19 11:00:00,
2014-01-19 06:30:00,25.3,16.9,29.79,South,180,3.0,10.0,70,0.00,,,-99.99,WeatherLink 5.6,2014-01-19 11:30:00,
2014-01-19 07:00:00,26.0,18.5,29.80,South,180,6.0,12.0,73,0.00,,,-99.99,WeatherLink 5.6,2014-01-19 12:00:00,
2014-01-19 07:30:00,27.2,21.8,29.81,South,180,3.0,10.0,80,0.00,,,-99.99,WeatherLink 5.6,2014-01-19 12:30:00,
2014-01-19 08:00:00,29.6,25.1,29.81,WSW,247,5.0,17.0,83,0.00,,,-99.99,WeatherLink 5.6,2014-01-19 13:00:00,
2014-01-19 08:30:00,30.1,25.6,29.82,West,270,5.0,14.0,83,0.00,,,-99.99,WeatherLink 5.6,2014-01-19 13:30:00,
2014-01-19 09:00:00,30.1,25.8,29.83,WNW,292,4.0,12.0,84,0.00,,,-99.99,WeatherLink 5.6,2014-01-19 14:00:00,
2014-01-19 09:30:00,30.1,25.8,29.85,WNW,292,5.0,16.0,84,0.00,,,-99.99,WeatherLink 5.6,2014-01-19 14:30:00,
2014-01-19 10:00:00,30.1,26.1,29.86,West,270,6.0,17.0,85,0.00,,,-99.99,WeatherLink 5.6,2014-01-19 15:00:00,
2014-01-19 10:30:00,30.5,26.2,29.87,West,270,3.0,14.0,84,0.00,,,-99.99,WeatherLink 5.6,2014-01-19 15:30:00,
2014-01-19 11:00:00,30.9,26.3,29.87,WNW,292,5.0,18.0,83,0.00,,,-99.99,WeatherLink 5.6,2014-01-19 16:00:00,
2014-01-19 11:30:00,31.0,26.4,29.88,West,270,6.0,16.0,83,0.00,,,-99.99,WeatherLink 5.6,2014-01-19 16:30:00,
2014-01-19 12:00:00,31.9,25.8,29.87,WNW,292,8.0,19.0,78,0.00,,,-99.99,WeatherLink 5.6,2014-01-19 17:00:00,
2014-01-19 12:30:00,31.7,25.0,29.88,WNW,292,11.0,25.0,76,0.00,,,-99.99,WeatherLink 5.6,2014-01-19 17:30:00,
2014-01-19 13:00:00,32.3,25.3,29.86,West,270,9.0,21.0,75,0.00,,,-99.99,WeatherLink 5.6,2014-01-19 18:00:00,
2014-01-19 13:30:00,33.0,25.6,29.86,West,270,9.0,26.0,74,0.00,,,-99.99,WeatherLink 5.6,2014-01-19 18:30:00,
2014-01-19 14:00:00,33.9,25.8,29.86,West,270,8.0,19.0,72,0.00,,,-99.99,WeatherLink 5.6,2014-01-19 19:00:00,
2014-01-19 14:30:00,35.1,26.3,29.85,West,270,6.0,15.0,70,0.00,,,-99.99,WeatherLink 5.6,2014-01-19 19:30:00,
2014-01-19 15:00:00,35.8,25.9,29.85,WSW,247,5.0,15.0,67,0.00,,,-99.99,WeatherLink 5.6,2014-01-19 20:00:00,
2014-01-19 15:30:00,36.6,25.6,29.85,WSW,247,6.0,16.0,64,0.00,,,-99.99,WeatherLink 5.6,2014-01-19 20:30:00,
2014-01-19 16:00:00,36.6,24.4,29.86,West,270,6.0,17.0,61,0.00,,,-99.99,WeatherLink 5.6,2014-01-19 21:00:00,
2014-01-19 16:30:00,36.3,24.1,29.86,WSW,247,8.0,21.0,61,0.00,,,-99.99,WeatherLink 5.6,2014-01-19 21:30:00,
2014-01-19 17:00:00,36.0,23.8,29.87,WSW,247,5.0,13.0,61,0.00,,,-99.99,WeatherLink 5.6,2014-01-19 22:00:00,
2014-01-19 17:30:00,35.0,24.0,29.87,SW,225,6.0,19.0,64,0.00,,,-99.99,WeatherLink 5.6,2014-01-19 22:30:00,
2014-01-19 18:00:00,33.8,24.0,29.87,SSW,202,4.0,14.0,67,0.00,,,-99.99,WeatherLink 5.6,2014-01-19 23:00:00,
2014-01-19 18:30:00,33.2,25.1,29.87,South,180,7.0,18.0,72,0.00,,,-99.99,WeatherLink 5.6,2014-01-19 23:30:00,
2014-01-19 19:00:00,33.2,25.1,29.87,South,180,8.0,18.0,72,0.00,,,-99.99,WeatherLink 5.6,2014-01-20 00:00:00,
2014-01-19 19:30:00,33.2,24.5,29.85,SSW,202,9.0,21.0,70,0.00,,,-99.99,WeatherLink 5.6,2014-01-20 00:30:00,
2014-01-19 20:00:00,32.3,24.9,29.84,South,180,10.0,21.0,74,0.00,,,-99.99,WeatherLink 5.6,2014-01-20 01:00:00,
2014-01-19 20:30:00,32.3,25.3,29.84,South,180,13.0,24.0,75,0.00,,,-99.99,WeatherLink 5.6,2014-01-20 01:30:00,
2014-01-19 21:00:00,32.1,25.4,29.85,South,180,13.0,22.0,76,0.00,,,-99.99,WeatherLink 5.6,2014-01-20 02:00:00,
2014-01-19 21:30:00,31.7,25.3,29.85,South,180,11.0,23.0,77,0.00,,,-99.99,WeatherLink 5.6,2014-01-20 02:30:00,
2014-01-19 22:00:00,31.5,25.1,29.85,South,180,9.0,18.0,77,0.00,,,-99.99,WeatherLink 5.6,2014-01-20 03:00:00,
2014-01-19 22:30:00,31.4,24.7,29.84,South,180,8.0,18.0,76,0.00,,,-99.99,WeatherLink 5.6,2014-01-20 03:30:00,
2014-01-19 23:00:00,31.0,24.6,29.84,South,180,12.0,21.0,77,0.00,,,-99.99,WeatherLink 5.6,2014-01-20 04:00:00,
2014-01-19 23:30:00,30.4,25.0,29.81,South,180,12.0,22.0,80,0.00,,,-99.99,WeatherLink 5.6,2014-01-20 04:30:00,